#timestamp,LO_Frequency,Hit,StdDev 
1644127215.1,286046996.2,N
1644127216.0,286046996.2,N
1644127235.8,286046995.1,N
1644127255.6,286046995.7,N
1644127275.5,286046994.2,N
1644127295.3,286046995.9,N
1644127315.1,286046994.1,N
1644127335.9,286046992.1,Y
1644127355.7,286046994.5,P
1644127375.6,286046993.8,P
1644127395.4,286046992.2,P
1644127415.2,286046991.8,Y
1644127435.1,286046998.8,P
1644127436.0,286046998.8,N
1644127455.8,286046999.2,N
1644127475.7,286046995.9,N
1644127495.5,286046998.0,N
1644127515.3,286046995.5,N
1644127535.2,286046996.4,N
1644127555.0,286046995.5,N
1644127555.9,286046995.5,N
1644127575.7,286046996.0,N
1644127595.6,286046993.4,Y
1644127615.4,286046999.1,P
1644127635.3,286047001.1,N
1644127655.1,286046999.3,N
1644127656.0,286046999.3,N
1644127675.8,286046999.4,N
1644127695.7,286047000.4,N
1644127715.5,286047000.4,N
1644127735.3,286046998.9,N
1644127755.2,286046998.8,N
1644127775.0,286046998.8,N
1644127775.9,286046998.8,N
1644127795.8,286046996.8,Y
1644127815.6,286046998.1,P
1644127835.4,286047001.0,N
1644127855.3,286047000.9,N
1644127875.1,286046999.8,N
1644127895.9,286047002.7,N
1644127915.7,286047000.1,N
1644127935.5,286047004.1,Y
1644127955.4,286047002.3,P
1644127975.2,286046999.9,N
1644127995.0,286047002.5,N
1644127995.9,286047002.5,N
1644128015.8,286047002.6,N
1644128035.6,286047000.6,N
1644128055.5,286047000.6,N
1644128075.3,286046998.7,N
1644128095.1,286046999.4,N
1644128115.9,286046999.6,N
1644128135.7,286046996.5,N
1644128155.5,286046997.9,N
1644128175.4,286046999.4,N
1644128195.2,286046998.8,N
1644128215.1,286047000.0,N
1644128216.0,286047000.0,N
1644128235.8,286047001.1,N
1644128255.6,286047002.1,N
1644128275.5,286047000.1,N
1644128295.3,286047001.8,N
1644128315.1,286047001.5,N
1644128335.9,286047005.4,Y
1644128355.7,286047003.6,P
1644128375.6,286047003.3,N
1644128395.4,286047004.7,P
1644128415.2,286047006.6,Y
1644128435.1,286047003.3,P
1644128436.0,286047003.3,P
1644128455.8,286047005.7,P
1644128475.7,286047003.0,N
1644128495.5,286047005.3,Y
1644128515.3,286046999.7,P
1644128535.2,286047000.3,N
1644128555.0,286047000.6,N
1644128555.9,286047000.6,N
1644128575.7,286046998.3,N
1644128595.6,286046999.2,N
1644128615.4,286047000.4,N
1644128635.3,286047001.9,N
1644128655.1,286047001.3,N
1644128656.0,286047001.3,N
1644128675.8,286047004.2,Y
1644128695.7,286047003.0,P
1644128715.5,286047002.7,N
1644128735.3,286047002.4,N
1644128755.2,286047000.8,N
1644128775.0,286047000.7,N
1644128775.9,286047000.7,N
1644128795.8,286046998.3,N
1644128815.6,286047000.7,N
1644128835.4,286046999.1,N
1644128855.3,286046996.8,N
1644128875.1,286046999.4,N
1644128895.9,286047000.2,N
1644128915.7,286046997.7,N
1644128935.5,286046997.1,N
1644128955.4,286046999.4,N
1644128975.2,286046996.6,N
1644128995.0,286047000.7,N
1644128995.9,286047000.7,N
1644129015.8,286046999.0,N
1644129035.6,286046999.0,N
1644129055.5,286047001.6,N
1644129075.3,286047002.6,N
1644129095.1,286047002.1,N
1644129115.9,286047001.0,N
1644129135.7,286046998.9,N
1644129155.5,286046998.1,N
1644129175.4,286046998.7,N
1644129195.2,286046999.9,N
1644129215.1,286047000.3,N
1644129216.0,286047000.3,N
1644129235.8,286047000.7,N
1644129255.6,286046998.8,N
1644129275.5,286047000.8,N
1644129295.3,286046998.5,N
1644129315.1,286046998.5,N
1644129335.9,286046999.9,N
1644129355.7,286047000.5,N
1644129375.6,286046998.1,N
1644129395.4,286046998.1,N
1644129415.2,286046998.2,N
1644129435.1,286047000.2,N
1644129436.0,286047000.2,N
1644129455.8,286047002.5,N
1644129475.6,286047000.4,N
1644129495.5,286046998.9,N
1644129515.3,286047000.9,N
1644129535.2,286047000.4,N
1644129555.9,286046998.8,N
1644129575.7,286046998.7,N
1644129595.6,286046998.9,N
1644129615.4,286047001.0,N
1644129635.2,286046997.3,N
1644129655.1,286046999.1,N
1644129656.0,286046999.1,N
1644129675.8,286046997.5,N
1644129695.7,286046997.8,N
1644129715.5,286046997.9,N
1644129735.3,286046994.9,Y
1644129755.2,286046996.9,P
1644129775.0,286046999.0,N
1644129775.9,286046999.0,N
1644129795.7,286047000.9,N
1644129815.6,286046998.4,N
1644129835.4,286046997.1,N
1644129855.3,286046999.3,N
1644129875.1,286046996.7,N
1644129876.0,286046996.7,N
1644129895.8,286046993.8,Y
1644129915.7,286046994.4,P
1644129935.5,286046996.4,N
1644129955.4,286046993.9,P
1644130005.2,286046995.4,E
1644130015.1,286046999.1,N
1644130035.9,286047002.3,P
1644130055.7,286047003.9,N
1644130075.6,286047002.2,N
1644130095.4,286047000.8,N
1644130115.2,286047000.7,N
1644130135.1,286046996.9,N
1644130136.0,286046996.9,N
1644130155.8,286046997.8,N
1644130175.6,286046995.0,N
1644130195.5,286046996.1,N
1644130215.3,286046998.0,N
1644130235.2,286046996.5,N
1644130255.9,286046996.0,N
1644130275.7,286046994.5,N
1644130295.6,286046992.0,N
1644130315.4,286046994.5,N
1644130335.2,286046994.3,N
1644130355.1,286046994.6,N
1644130356.0,286046994.6,N
1644130375.8,286046993.3,N
1644130395.7,286046995.1,N
1644130415.5,286046993.6,N
1644130435.3,286046991.8,N
1644130455.2,286046992.4,N
1644130475.0,286046992.4,N
1644130475.9,286046992.4,N
1644130495.7,286046992.7,N
1644130515.6,286046993.2,N
1644130535.4,286046992.3,N
1644130555.3,286046992.7,N
1644130575.1,286046992.7,N
1644130576.0,286046992.7,N
1644130595.8,286046992.0,N
1644130615.7,286046992.0,Y
1644130635.5,286046997.2,P
1644130655.3,286046999.1,N
1644130675.2,286046996.5,N
1644130695.0,286046999.2,N
1644130695.9,286046999.2,N
1644130715.8,286046999.6,N
1644130735.6,286046999.9,N
1644130755.4,286047001.2,N
1644130775.3,286046997.2,N
1644130795.1,286046996.6,N
